A/2019 O4

Japanese version
Home page
Updated on June 14, 2021

---------------------------------------------------------------------

* Profile

Discovery Date July 27, 2019
Magnitude 21.4 mag
Discoverer Pan-STARRS 1 telescope (Haleakala)

* Orbital Elements

Epoch 2020 Feb. 1.0 TT = JDT 2458880.5
T 2020 Feb.  9.91815 TT                                 Rudenko
q   3.6444226            (2000.0)            P               Q
n   0.00522590     Peri.   61.80397     +0.43753727     -0.89561493
a  32.8873473      Node   354.91850     -0.69737743     -0.28166292
e   0.8891847      Incl.  115.08491     +0.56764941     +0.34429623
P 189              H   15.5
From 70 observations 2018 Aug. 6-2021 May 9, mean residual 0".3.

* Magnitudes Graph

        H = 15.5  G = 0.15

---------------------------------------------------------------------

The orbital elements are published on M.P.E.C. 2021-L04.
The magnitudes graphs are made with Comet for Windows.

---------------------------------------------------------------------

Copyright(C) Seiichi Yoshida (comet@aerith.net). All rights reserved.